STARLINK-35767

Last updated on Fri Dec 19 2025 00:02:10 GMT+0000 (Coordinated Universal Time)

1 67058U 25294AE 25351.91668981 -.01412592 59618-3 -31847-2 0 9995 2 67058 43.0002 150.6991 0001685 275.5383 284.0591 15.96793341 2134
UTC large
Height (km)
Speed (km/s)
/
Latitude / Longitude
Inclination (degrees)
Orbital Period (minutes)
Azimuth
Elevation
Range (km)
Doppler Factor

Next 0 passes for location: London (51.5072 / 0.1276)

Sorry there are no passes over London.